Time_in_sec,gx,gy,gz
1314271752.50044703,0.15350972,0.02013637,-0.98794195
1314271752.54859304,0.15346356,0.02019768,-0.98794787
1314271752.60047293,0.15354660,0.01989424,-0.98794112
1314271752.65170908,0.15366721,0.02001798,-0.98791987
1314271752.70049953,0.15360856,0.01985683,-0.98793224
1314271752.74843884,0.15357581,0.01981143,-0.98793825
1314271752.80044317,0.15366283,0.02003300,-0.98792025
1314271752.84869456,0.15371030,0.01993965,-0.98791475
1314271752.89751363,0.15357714,0.02030980,-0.98792792
1314271752.94861317,0.15350515,0.02025499,-0.98794023
1314271752.99749684,0.15342086,0.02033498,-0.98795168
1314271753.05016541,0.15347164,0.02047454,-0.98794091
1314271753.09750772,0.15364806,0.02043939,-0.98791422
1314271753.14870238,0.15355923,0.02056228,-0.98792548
1314271753.19839120,0.15369731,0.02048504,-0.98790561
1314271753.24897337,0.15397323,0.02065368,-0.98785913
1314271753.29835701,0.15386685,0.02049287,-0.98787906
1314271753.34846401,0.15381037,0.02047168,-0.98788829
1314271753.40153480,0.15380669,0.02054709,-0.98788730
1314271753.45180082,0.15405730,0.02041367,-0.98785102
1314271753.50051880,0.15409061,0.02061997,-0.98784154
1314271753.54850173,0.15409632,0.02075447,-0.98783783
1314271753.60044622,0.15419226,0.02072033,-0.98782357
1314271753.64850712,0.15454342,0.02074773,-0.98776812
1314271753.70046353,0.15440461,0.02051164,-0.98779476
1314271753.74848962,0.15441577,0.02039619,-0.98779541
1314271753.80052161,0.15451377,0.02041049,-0.98777979
1314271753.85246229,0.15441469,0.02034721,-0.98779659
1314271753.89763808,0.15435162,0.02036188,-0.98780614
1314271753.94859815,0.15426050,0.02027002,-0.98782226
1314271754.00055575,0.15434773,0.02035229,-0.98780695
1314271754.04850292,0.15418486,0.02014216,-0.98783669
1314271754.09809709,0.15416812,0.02026229,-0.98783684
1314271754.14859843,0.15389232,0.02033317,-0.98787839
1314271754.19750357,0.15408316,0.02021826,-0.98785100
1314271754.25079370,0.15375349,0.02034004,-0.98789987
1314271754.29731536,0.15396214,0.02023972,-0.98786943
1314271754.35249805,0.15416218,0.02024134,-0.98783820
1314271754.40049076,0.15416437,0.02039666,-0.98783466
1314271754.44953942,0.15436441,0.02028160,-0.98780579
1314271754.50044656,0.15449061,0.02021035,-0.98778752
1314271754.54996252,0.15451581,0.02005641,-0.98778672
1314271754.59758091,0.15457950,0.02013579,-0.98777514
1314271754.65030837,0.15427961,0.02018502,-0.98782102
1314271754.70162034,0.15438674,0.02018622,-0.98780426
1314271754.74947000,0.15460886,0.02038946,-0.98776534
1314271754.80153227,0.15482877,0.02024924,-0.98773378
1314271754.84951591,0.15493265,0.02013703,-0.98771978
1314271754.90046263,0.15483454,0.02010877,-0.98773574
1314271754.94961476,0.15486481,0.02013709,-0.98773042
1314271755.00060058,0.15487275,0.02046146,-0.98772251
1314271755.04983497,0.15509029,0.02033226,-0.98769105
1314271755.10159969,0.15524371,0.02018101,-0.98767004
1314271755.14851665,0.15545011,0.02015078,-0.98763820
1314271755.19710565,0.15536384,0.02011402,-0.98765252
1314271755.24858952,0.15571603,0.02005460,-0.98759826
1314271755.29767919,0.15574737,0.02003863,-0.98759365
1314271755.34961295,0.15580008,0.02024037,-0.98758122
1314271755.39772749,0.15579590,0.02033112,-0.98758001
1314271755.45229316,0.15587987,0.02006887,-0.98757213
1314271755.50058985,0.15574193,0.01985321,-0.98759825
1314271755.54946613,0.15580142,0.01993311,-0.98758726
1314271755.60044980,0.15573979,0.01985718,-0.98759851
1314271755.64155412,0.15562586,0.01973198,-0.98761898
1314271755.70049763,0.15539094,0.01976178,-0.98765537
1314271755.74959636,0.15544027,0.01966015,-0.98764963
1314271755.80159307,0.15547990,0.01964477,-0.98764370
1314271755.84854388,0.15526864,0.01963547,-0.98767712
1314271755.90161014,0.15529194,0.01958698,-0.98767442
1314271755.94854879,0.15539609,0.01976107,-0.98765457
1314271756.00155330,0.15550191,0.01966234,-0.98763989
1314271756.04951429,0.15535454,0.02000692,-0.98765616
1314271756.09750962,0.15506717,0.02012575,-0.98769890
1314271756.14851046,0.15505710,0.01999231,-0.98770320
1314271756.20055008,0.15491983,0.01995183,-0.98772555
1314271756.24977112,0.15501353,0.01991512,-0.98771159
1314271756.29751515,0.15531028,0.01989686,-0.98766534
1314271756.34946823,0.15529385,0.01977648,-0.98767035
1314271756.40147734,0.15522725,0.01985963,-0.98767915
1314271756.44961143,0.15509880,0.01992254,-0.98769806
1314271756.49826455,0.15488517,0.01989779,-0.98773208
1314271756.54849029,0.15498513,0.01985756,-0.98771721
1314271756.60228753,0.15494232,0.01976394,-0.98772580
1314271756.65251637,0.15511973,0.01993611,-0.98769450
1314271756.70159793,0.15524816,0.01989160,-0.98767522
1314271756.75263667,0.15496263,0.01979540,-0.98772199
1314271756.80152321,0.15486617,0.01985084,-0.98773600
1314271756.84851813,0.15505165,0.01977505,-0.98770843
1314271756.90044308,0.15523606,0.01975493,-0.98767986
1314271756.94999743,0.15523958,0.01975595,-0.98767929
1314271756.99811983,0.15513625,0.01965776,-0.98769748
1314271757.04856992,0.15517168,0.01946284,-0.98769578
1314271757.10160995,0.15536109,0.01949697,-0.98766533
1314271757.14948344,0.15536488,0.01968681,-0.98766097
1314271757.20149875,0.15549407,0.01953771,-0.98764360
1314271757.24849057,0.15535735,0.01941178,-0.98766759
1314271757.29743171,0.15567933,0.01963828,-0.98761242
1314271757.34960747,0.15578553,0.01976262,-0.98759319
1314271757.39697528,0.15596394,0.01987411,-0.98756279
1314271757.45251083,0.15589121,0.01972796,-0.98757721
1314271757.50057793,0.15602690,0.01980391,-0.98755426
1314271757.54846549,0.15597904,0.01959220,-0.98756604
1314271757.60066891,0.15584851,0.01976433,-0.98758322
1314271757.64845252,0.15605932,0.01981715,-0.98754887
1314271757.70045185,0.15608558,0.01984905,-0.98754408
1314271757.74949694,0.15614063,0.01991309,-0.98753409
1314271757.80153704,0.15626297,0.01980449,-0.98751692
1314271757.84849095,0.15606807,0.01964661,-0.98755089
1314271757.89747906,0.15617761,0.01953856,-0.98753572
1314271757.94844937,0.15608445,0.01958896,-0.98754945
1314271757.99782276,0.15580584,0.01976198,-0.98759000
1314271758.04947543,0.15584248,0.01980865,-0.98758328
1314271758.10047626,0.15576169,0.01969798,-0.98759824
1314271758.14043617,0.15561114,0.01986024,-0.98761872
1314271758.19726729,0.15555835,0.01995416,-0.98762515
1314271758.25133657,0.15536375,0.02023236,-0.98765012
1314271758.29745793,0.15507447,0.01999959,-0.98770032
1314271758.34852052,0.15516355,0.01993579,-0.98768762
1314271758.40049243,0.15518625,0.02002415,-0.98768227
1314271758.44962883,0.15489594,0.01996789,-0.98772898
1314271758.49771261,0.15486888,0.01987494,-0.98773509
1314271758.54902124,0.15469123,0.01987371,-0.98776296
1314271758.60061789,0.15463577,0.01956414,-0.98777782
1314271758.64957690,0.15470226,0.01944635,-0.98776974
1314271758.70061541,0.15462923,0.01923300,-0.98778535
1314271758.74946713,0.15457276,0.01938548,-0.98779120
1314271758.80048418,0.15452645,0.01956262,-0.98779496
1314271758.84851456,0.15451354,0.01947573,-0.98779869
1314271758.89754581,0.15456640,0.01967916,-0.98778639
1314271758.94872975,0.15447296,0.01975917,-0.98779941
1314271759.00045681,0.15438051,0.01969426,-0.98781516
1314271759.04854345,0.15387257,0.01955140,-0.98789725
1314271759.10058093,0.15367639,0.01963616,-0.98792610
1314271759.14994597,0.15359703,0.01956947,-0.98793977
1314271759.20147443,0.15378555,0.01979376,-0.98790597
1314271759.24862504,0.15380656,0.01988871,-0.98790080
1314271759.29747200,0.15383543,0.01965110,-0.98790105
1314271759.34857225,0.15383196,0.01957148,-0.98790318
1314271759.39750195,0.15371173,0.01959806,-0.98792136
1314271759.44867301,0.15364356,0.01955151,-0.98793289
1314271759.49748325,0.15376081,0.01975484,-0.98791060
1314271759.54976797,0.15359668,0.01953115,-0.98794058
1314271759.60047412,0.15349556,0.01971742,-0.98795260
1314271759.64850879,0.15331264,0.01928113,-0.98798961
1314271759.69799852,0.15330856,0.01916275,-0.98799255
1314271759.74892974,0.15355313,0.01898658,-0.98795797
1314271759.80161214,0.15360360,0.01904390,-0.98794902
1314271759.84955406,0.15360209,0.01884481,-0.98795307
1314271759.89785933,0.15363082,0.01877990,-0.98794984
1314271759.94849110,0.15375108,0.01866543,-0.98793330
1314271759.98847961,0.15403443,0.01849352,-0.98789239
1314271760.04960442,0.15417035,0.01861529,-0.98786891
1314271760.09814453,0.15412181,0.01877227,-0.98787351
1314271760.14968562,0.15388933,0.01878900,-0.98790943
1314271760.20160151,0.15408580,0.01877166,-0.98787914
1314271760.24779725,0.15399764,0.01881518,-0.98789206
1314271760.30160999,0.15406920,0.01896317,-0.98787807
1314271760.34949017,0.15425696,0.01893730,-0.98784926
1314271760.39763403,0.15413180,0.01859115,-0.98787538
1314271760.44954705,0.15409049,0.01867188,-0.98788030
1314271760.49785185,0.15406883,0.01877565,-0.98788171
1314271760.54960895,0.15403271,0.01880379,-0.98788681
1314271760.60160089,0.15372095,0.01896341,-0.98793232
1314271760.64850545,0.15361514,0.01888716,-0.98795023
1314271760.70058632,0.15345355,0.01886354,-0.98797580
1314271760.74988580,0.15338634,0.01894518,-0.98798467
1314271760.80044198,0.15352849,0.01902257,-0.98796110
1314271760.84951401,0.15344173,0.01915413,-0.98797204
1314271760.90044951,0.15359775,0.01880761,-0.98795445
1314271760.94868207,0.15365070,0.01889045,-0.98794464
1314271761.00160360,0.15338397,0.01888985,-0.98798610
1314271761.05121279,0.15347999,0.01895943,-0.98796985
1314271761.10162234,0.15360953,0.01866346,-0.98795536
1314271761.14858937,0.15341843,0.01874461,-0.98798351
1314271761.20047784,0.15343898,0.01867669,-0.98798161
1314271761.24859118,0.15336987,0.01842918,-0.98799699
1314271761.29772925,0.15338796,0.01872218,-0.98798867
1314271761.34927320,0.15346120,0.01860597,-0.98797949
1314271761.39746261,0.15316887,0.01858374,-0.98802527
1314271761.45247412,0.15335956,0.01823181,-0.98800225
1314271761.49659705,0.15350774,0.01811784,-0.98798133
1314271761.54950786,0.15357328,0.01790828,-0.98797497
1314271761.60150576,0.15339002,0.01797984,-0.98800214
1314271761.64963555,0.15333895,0.01820785,-0.98800589
1314271761.69773197,0.15325589,0.01833752,-0.98801638
1314271761.74849081,0.15316937,0.01830559,-0.98803039
1314271761.80046511,0.15322698,0.01823582,-0.98802275
1314271761.84830284,0.15299547,0.01822937,-0.98805874
1314271761.89760923,0.15314469,0.01841758,-0.98803213
1314271761.94950318,0.15310846,0.01827160,-0.98804046
1314271762.00153089,0.15282374,0.01829713,-0.98808407
1314271762.04959011,0.15283933,0.01828017,-0.98808197
1314271762.09782267,0.15302429,0.01834524,-0.98805213
1314271762.14864707,0.15320338,0.01859469,-0.98801972
1314271762.20152140,0.15329853,0.01863774,-0.98800415
1314271762.24848771,0.15308555,0.01856402,-0.98803856
1314271762.30057621,0.15299898,0.01835833,-0.98805581
1314271762.34849906,0.15310951,0.01821489,-0.98804134
1314271762.40046334,0.15329719,0.01837074,-0.98800936
1314271762.44851661,0.15335784,0.01807252,-0.98800544
1314271762.50047255,0.15321959,0.01813258,-0.98802579
1314271762.54952335,0.15324197,0.01785651,-0.98802735
1314271762.60149217,0.15337761,0.01768824,-0.98800933
1314271762.64850259,0.15321789,0.01769151,-0.98803405
1314271762.70050645,0.15310955,0.01776240,-0.98804957
1314271762.75387669,0.15317052,0.01789042,-0.98803782
1314271762.80052161,0.15299549,0.01791731,-0.98806445
1314271762.84946394,0.15303337,0.01809957,-0.98805526
1314271762.89814758,0.15312354,0.01811592,-0.98804099
1314271762.94946384,0.15314153,0.01826767,-0.98803541
1314271762.99776101,0.15318251,0.01833987,-0.98802772
1314271763.05251050,0.15328139,0.01828529,-0.98801339
1314271763.10146427,0.15310188,0.01818549,-0.98804307
1314271763.15390992,0.15292388,0.01818699,-0.98807060
1314271763.20047045,0.15283096,0.01821244,-0.98808451
1314271763.24859667,0.15269418,0.01813405,-0.98810710
1314271763.29759526,0.15245247,0.01788336,-0.98814899
1314271763.34850073,0.15241567,0.01768374,-0.98815826
1314271763.38962293,0.15250539,0.01768965,-0.98814431
1314271763.45250702,0.15238922,0.01766195,-0.98816273
1314271763.50058079,0.15223225,0.01753036,-0.98818927
1314271763.54849577,0.15211918,0.01763278,-0.98820486
1314271763.60149765,0.15206474,0.01776067,-0.98821095
1314271763.64961457,0.15196502,0.01754485,-0.98823014
1314271763.68991184,0.15186773,0.01749227,-0.98824603
1314271763.74853206,0.15199924,0.01755007,-0.98822479
1314271763.80060053,0.15213447,0.01757649,-0.98820351
1314271763.85030723,0.15213057,0.01755812,-0.98820443
1314271763.89789462,0.15238745,0.01746424,-0.98816652
1314271763.95252919,0.15242702,0.01775817,-0.98815518
1314271764.00049376,0.15229721,0.01758596,-0.98817827
1314271764.04852891,0.15235928,0.01734827,-0.98817290
1314271764.09774113,0.15249779,0.01761138,-0.98814688
1314271764.14969420,0.15246815,0.01765190,-0.98815073
1314271764.20048952,0.15244361,0.01765600,-0.98815445
1314271764.24852252,0.15224802,0.01732441,-0.98819047
1314271764.29750848,0.15227097,0.01741301,-0.98818538
1314271764.34059191,0.15226600,0.01743023,-0.98818584
1314271764.39777756,0.15243407,0.01765189,-0.98815599
1314271764.44850874,0.15227587,0.01780519,-0.98817763
1314271764.49761891,0.15256265,0.01785387,-0.98813252
1314271764.54858971,0.15233544,0.01789815,-0.98816677
1314271764.60062146,0.15216855,0.01803708,-0.98818996
1314271764.64963484,0.15243253,0.01788954,-0.98815196
1314271764.70046520,0.15261257,0.01806491,-0.98812098
1314271764.74854207,0.15245309,0.01809423,-0.98814506
1314271764.80051661,0.15255156,0.01818640,-0.98812817
1314271764.84063840,0.15303030,0.01800378,-0.98805748
1314271764.89784741,0.15278491,0.01816677,-0.98809247
1314271764.94851780,0.15282903,0.01815114,-0.98808594
1314271765.00159240,0.15292197,0.01824234,-0.98806988
1314271765.05129552,0.15288859,0.01826405,-0.98807464
1314271765.09748530,0.15315251,0.01835960,-0.98803200
1314271765.13753271,0.15307228,0.01832182,-0.98804513
1314271765.20048332,0.15307496,0.01841954,-0.98804290
1314271765.24862337,0.15298413,0.01820913,-0.98806087
1314271765.28992152,0.15268424,0.01850207,-0.98810181
1314271765.34850478,0.15265587,0.01835213,-0.98810899
1314271765.40152311,0.15259668,0.01821748,-0.98812063
1314271765.44848633,0.15251321,0.01831472,-0.98813172
1314271765.50153494,0.15225208,0.01823319,-0.98817349
1314271765.54848051,0.15203242,0.01835325,-0.98820509
1314271765.60044694,0.15199593,0.01813340,-0.98821476
1314271765.64948750,0.15193966,0.01813766,-0.98822334
1314271765.70520043,0.15190539,0.01808976,-0.98822948
1314271765.74849510,0.15172891,0.01804739,-0.98825737
1314271765.80162334,0.15161439,0.01817621,-0.98827259
1314271765.85056877,0.15168020,0.01806531,-0.98826452
1314271765.90155315,0.15174417,0.01826366,-0.98825105
1314271765.94160628,0.15183283,0.01829868,-0.98823679
1314271766.00049400,0.15184406,0.01827507,-0.98823550
1314271766.03750587,0.15197675,0.01855671,-0.98820985
1314271766.08950043,0.15215664,0.01861605,-0.98818106
1314271766.14847708,0.15255751,0.01856720,-0.98812017
1314271766.19753528,0.15251993,0.01847236,-0.98812775
1314271766.25247717,0.15245856,0.01846892,-0.98813728
1314271766.30162024,0.15231071,0.01857443,-0.98815810
1314271766.33710766,0.15236441,0.01843060,-0.98815252
1314271766.39748836,0.15219030,0.01843303,-0.98817930
1314271766.44165778,0.15229158,0.01828170,-0.98816651
1314271766.50046325,0.15254923,0.01859797,-0.98812087
1314271766.54847550,0.15244343,0.01861900,-0.98813680
1314271766.58849835,0.15246278,0.01875672,-0.98813121
1314271766.64000273,0.15252843,0.01876759,-0.98812087
1314271766.70149732,0.15244507,0.01845496,-0.98813962
1314271766.74160695,0.15233493,0.01855308,-0.98815477
1314271766.79252720,0.15223476,0.01852056,-0.98817082
1314271766.84049511,0.15203068,0.01852656,-0.98820212
1314271766.88991690,0.15193074,0.01858544,-0.98821639
1314271766.94052029,0.15186877,0.01844734,-0.98822850
1314271766.98850965,0.15198369,0.01884192,-0.98820339
1314271767.04182649,0.15180072,0.01871666,-0.98823389
1314271767.08850694,0.15174704,0.01883092,-0.98823997
1314271767.14149356,0.15175224,0.01882777,-0.98823923
1314271767.18978834,0.15158060,0.01888074,-0.98826456
1314271767.24060440,0.15151137,0.01914959,-0.98827000
1314271767.28958631,0.15170456,0.01886496,-0.98824584
1314271767.34149146,0.15164197,0.01899702,-0.98825292
1314271767.38956261,0.15156559,0.01913593,-0.98826195
1314271767.44164419,0.15167315,0.01898585,-0.98824835
1314271767.48845148,0.15165681,0.01906342,-0.98824936
1314271767.54051018,0.15158253,0.01904599,-0.98826109
1314271767.58846974,0.15132164,0.01932760,-0.98829561
1314271767.64052296,0.15154354,0.01915140,-0.98826503
1314271767.68964529,0.15146717,0.01926367,-0.98827456
1314271767.74045944,0.15151326,0.01927816,-0.98826721
1314271767.78846931,0.15154214,0.01924488,-0.98826343
1314271767.84129548,0.15148815,0.01922650,-0.98827207
1314271767.88948607,0.15157812,0.01920517,-0.98825869
1314271767.94046521,0.15165456,0.01947548,-0.98824167
1314271768.00151491,0.15145105,0.01955487,-0.98827131
1314271768.04148960,0.15127057,0.01961887,-0.98829768
1314271768.08949041,0.15138045,0.01985288,-0.98827619
1314271768.14047003,0.15125741,0.01983188,-0.98829545
1314271768.18847632,0.15121478,0.02004301,-0.98829771
1314271768.23795629,0.15101446,0.02018871,-0.98832538
1314271768.28847456,0.15112642,0.02017532,-0.98830854
1314271768.34149957,0.15132276,0.02023592,-0.98827725
1314271768.38976407,0.15114919,0.02003059,-0.98830800
1314271768.44160032,0.15109781,0.02028422,-0.98831068
1314271768.49246168,0.15126220,0.02001146,-0.98829110
1314271768.53837538,0.15111841,0.01994814,-0.98831437
1314271768.58859015,0.15123900,0.01981328,-0.98829864
1314271768.64046836,0.15129614,0.01968478,-0.98829246
1314271768.68849230,0.15142299,0.01971221,-0.98827249
1314271768.74045825,0.15128415,0.01960195,-0.98829594
1314271768.78845525,0.15137019,0.01963592,-0.98828209
1314271768.84159303,0.15120518,0.01980277,-0.98830402
1314271768.89022470,0.15108259,0.01967918,-0.98832524
1314271768.94149208,0.15105228,0.01963498,-0.98833075
1314271768.98946881,0.15119285,0.01969359,-0.98830809
1314271769.03790760,0.15131263,0.01968809,-0.98828987
1314271769.08961320,0.15133200,0.01973661,-0.98828594
1314271769.14162087,0.15132559,0.01978769,-0.98828590
1314271769.20046878,0.15135521,0.01980098,-0.98828110
1314271769.23728061,0.15170548,0.01980779,-0.98822725
1314271769.29009199,0.15152940,0.01995965,-0.98825121
1314271769.34046912,0.15184386,0.01974000,-0.98820735
1314271769.38962626,0.15171425,0.01955293,-0.98823098
1314271769.43758225,0.15187171,0.01940154,-0.98820978
1314271769.48846483,0.15183781,0.01931161,-0.98821675
1314271769.54149222,0.15169277,0.01925497,-0.98824013
1314271769.59250236,0.15170612,0.01945692,-0.98823412
1314271769.64153600,0.15179480,0.01947120,-0.98822022
1314271769.68995667,0.15174167,0.01944473,-0.98822891
1314271769.74152780,0.15174284,0.01941420,-0.98822932
1314271769.78859591,0.15167281,0.01920130,-0.98824424
1314271769.84180045,0.15164351,0.01939919,-0.98824487
1314271769.88960814,0.15161917,0.01966236,-0.98824340
1314271769.94050431,0.15168425,0.01949676,-0.98823669
1314271770.00151563,0.15178664,0.01950483,-0.98822081
1314271770.04164815,0.15195651,0.01970645,-0.98819071
1314271770.08980966,0.15201555,0.01963772,-0.98818300
1314271770.14050555,0.15183890,0.01988135,-0.98820528
1314271770.18961024,0.15181558,0.01958640,-0.98821476
1314271770.23887563,0.15211911,0.01978008,-0.98816422
1314271770.28963304,0.15222103,0.01969591,-0.98815021
1314271770.34051538,0.15207779,0.01953600,-0.98817544
1314271770.39294481,0.15199627,0.01967258,-0.98818527
